Location: Squirrel Cove
(50.1074°N, 124.9139°W)
Time: 13:08:46
(UTC-07:00)

PCSat - Pass Details

Date: 20 May 2022
Orbit: 784 x 795 km, 67.1° (Epoch: 26 June)

Event Time Altitude Azimuth Distance (km) Brightness Sun altitude
Rises 23:29:42 0° 299° (WNW) 3,299 13.7 -15.9°
Reaches altitude 10° 23:33:32 10° 326° (NW) 2,372 13.4 -16.1°
Maximum altitude 23:36:07 13° 355° (N) 2,146 12.9 -16.3°
Drops below altitude 10° 23:38:42 10° 23° (NNE) 2,374 12.6 -16.5°
Sets 23:42:33 0° 50° (NE) 3,305 13.0 -16.7°
